When you browse on this site, cookies collect data to enhance your experience and personalize the content and advertising you see.
Visit our Privacy Policy to learn more. By continuing to use the site, you agree to this use of cookies and data.
  • In Hungary
  • List of Countries
  • For 7 days
  • Water Temperature
  • Satellite Maps
  • Weather Map
  • News
  • Weather Widgets
  • user-avatar
    Login

    Hourly Weather Luszczow

    Today, 18 January, Friday

    Time Temperature Precipitation Wind Pressure Humidity
    00:00 0°C° 0.1 mm 5 mps 736 mmHg 89%
    01:00 0°C° 0.1 mm 5 mps 736 mmHg 89%
    02:00 0°C° 0 mm 4 mps 735 mmHg 91%
    03:00 0°C° 0 mm 4 mps 735 mmHg 91%
    04:00 0°C° 0 mm 4 mps 735 mmHg 91%
    05:00 0°C° 0 mm 5 mps 735 mmHg 91%
    06:00 0°C° 0 mm 5 mps 735 mmHg 91%
    07:00 0°C° 0 mm 5 mps 736 mmHg 91%
    08:00 0°C° 0 mm 5 mps 736 mmHg 91%
    09:00 0°C° 0 mm 5 mps 736 mmHg 91%
    10:00 0°C° 0 mm 5 mps 737 mmHg 91%
    11:00 0°C° 0 mm 5 mps 737 mmHg 91%
    12:00 0°C° 0 mm 5 mps 738 mmHg 88%
    13:00 -1°C° 0 mm 6 mps 738 mmHg 84%
    14:00 -1°C° 0 mm 6 mps 739 mmHg 81%
    15:00 -2°C° 0 mm 6 mps 739 mmHg 82%
    16:00 -1°C° 0 mm 5 mps 740 mmHg 83%
    17:00 -2°C° 0 mm 5 mps 741 mmHg 85%
    18:00 -2°C° 0 mm 5 mps 741 mmHg 85%
    19:00 -3°C° 0 mm 4 mps 742 mmHg 85%
    20:00 -4°C° 0 mm 4 mps 742 mmHg 85%
    21:00 -4°C° 0 mm 4 mps 743 mmHg 85%
    22:00 -4°C° 0 mm 3 mps 744 mmHg 85%
    23:00 -5°C° 0 mm 3 mps 744 mmHg 84%

    Tomorrow, 19 January, Saturday

    Time Temperature Precipitation Wind Pressure Humidity
    00:00 -5°C° 0 mm 3 mps 745 mmHg 84%
    01:00 -5°C° 0 mm 3 mps 745 mmHg 85%
    02:00 -5°C° 0 mm 3 mps 746 mmHg 85%
    03:00 -5°C° 0 mm 3 mps 746 mmHg 85%
    04:00 -5°C° 0 mm 3 mps 746 mmHg 85%
    05:00 -5°C° 0 mm 3 mps 747 mmHg 86%
    06:00 -5°C° 0 mm 3 mps 747 mmHg 87%
    07:00 -5°C° 0 mm 3 mps 747 mmHg 87%
    08:00 -6°C° 0 mm 3 mps 747 mmHg 88%
    09:00 -5°C° 0 mm 3 mps 748 mmHg 86%
    10:00 -5°C° 0 mm 3 mps 748 mmHg 84%
    11:00 -4°C° 0 mm 3 mps 748 mmHg 81%
    12:00 -4°C° 0 mm 3 mps 748 mmHg 80%
    13:00 -2°C° 0 mm 3 mps 748 mmHg 79%
    14:00 -2°C° 0 mm 3 mps 748 mmHg 78%
    15:00 -2°C° 0 mm 2 mps 748 mmHg 81%
    16:00 -3°C° 0 mm 2 mps 748 mmHg 84%
    17:00 -4°C° 0 mm 2 mps 748 mmHg 87%
    18:00 -4°C° 0 mm 2 mps 748 mmHg 87%
    19:00 -2°C° 0 mm 1 mps 748 mmHg 88%
    20:00 -2°C° 0 mm 1 mps 748 mmHg 89%
    21:00 -2°C° 0 mm 1 mps 748 mmHg 89%
    22:00 -5°C° 0 mm 2 mps 748 mmHg 89%
    23:00 -5°C° 0 mm 2 mps 748 mmHg 89%

    Day after tomorrow, 20 January, Sunday

    Time Temperature Precipitation Wind Pressure Humidity
    00:00 -5°C° 0 mm 2 mps 748 mmHg 89%
    01:00 -5°C° 0 mm 2 mps 747 mmHg 89%
    02:00 -6°C° 0 mm 2 mps 747 mmHg 89%
    03:00 -6°C° 0 mm 2 mps 747 mmHg 88%
    04:00 -6°C° 0 mm 2 mps 746 mmHg 87%
    05:00 -6°C° 0 mm 2 mps 746 mmHg 86%
    06:00 -6°C° 0 mm 2 mps 746 mmHg 86%
    07:00 -6°C° 0 mm 2 mps 746 mmHg 87%
    08:00 -7°C° 0 mm 2 mps 745 mmHg 88%
    09:00 -6°C° 0 mm 2 mps 745 mmHg 88%
    10:00 -4°C° 0 mm 1 mps 745 mmHg 88%
    11:00 -3°C° 0 mm 1 mps 745 mmHg 88%
    12:00 -3°C° 0 mm 1 mps 745 mmHg 86%
    13:00 -3°C° 0 mm 1 mps 745 mmHg 85%
    14:00 -2°C° 0 mm 1 mps 744 mmHg 83%
    15:00 -2°C° 0 mm 1 mps 744 mmHg 85%
    16:00 -4°C° 0 mm 0 mps 744 mmHg 87%
    17:00 -4°C° 0 mm 0 mps 744 mmHg 88%
    18:00 -3°C° 0 mm 1 mps 744 mmHg 88%
    19:00 -3°C° 0 mm 1 mps 744 mmHg 88%
    20:00 -3°C° 0 mm 1 mps 744 mmHg 88%
    21:00 -3°C° 0 mm 1 mps 744 mmHg 88%
    22:00 -3°C° 0 mm 1 mps 745 mmHg 87%
    23:00 -5°C° 0 mm 2 mps 745 mmHg 86%

    21 January, Monday

    Time Temperature Precipitation Wind Pressure Humidity
    00:00 -6°C° 0 mm 2 mps 745 mmHg 86%
    01:00 -6°C° 0 mm 2 mps 745 mmHg 87%
    02:00 -6°C° 0 mm 2 mps 745 mmHg 87%
    03:00 -7°C° 0 mm 3 mps 746 mmHg 88%
    04:00 -6°C° 0 mm 3 mps 746 mmHg 89%
    05:00 -6°C° 0 mm 3 mps 746 mmHg 90%
    06:00 -6°C° 0 mm 3 mps 746 mmHg 92%
    07:00 -6°C° 0 mm 2 mps 747 mmHg 94%
    08:00 -6°C° 0 mm 2 mps 747 mmHg 95%
    09:00 -5°C° 0 mm 2 mps 748 mmHg 93%
    10:00 -5°C° 0 mm 2 mps 748 mmHg 90%
    11:00 -2°C° 0 mm 1 mps 749 mmHg 88%
    12:00 -2°C° 0 mm 1 mps 749 mmHg 82%
    13:00 -2°C° 0 mm 1 mps 749 mmHg 76%
    14:00 -1°C° 0 mm 1 mps 749 mmHg 70%
    15:00 -2°C° 0 mm 1 mps 749 mmHg 73%
    16:00 -2°C° 0 mm 1 mps 749 mmHg 76%
    17:00 -3°C° 0 mm 1 mps 749 mmHg 79%
    18:00 -3°C° 0 mm 1 mps 749 mmHg 81%
    19:00 -3°C° 0 mm 1 mps 749 mmHg 83%
    20:00 -3°C° 0 mm 1 mps 749 mmHg 85%
    21:00 -5°C° 0 mm 2 mps 749 mmHg 86%
    22:00 -6°C° 0 mm 2 mps 749 mmHg 87%
    23:00 -6°C° 0 mm 2 mps 749 mmHg 88%

    22 January, Tuesday

    Time Temperature Precipitation Wind Pressure Humidity
    00:00 -6°C° 0 mm 2 mps 749 mmHg 89%
    01:00 -6°C° 0 mm 2 mps 749 mmHg 90%
    02:00 -6°C° 0 mm 2 mps 748 mmHg 91%
    03:00 -6°C° 0 mm 2 mps 748 mmHg 92%
    04:00 -6°C° 0 mm 2 mps 748 mmHg 93%
    05:00 -7°C° 0 mm 3 mps 747 mmHg 94%
    06:00 -7°C° 0 mm 3 mps 747 mmHg 93%
    07:00 -7°C° 0 mm 3 mps 747 mmHg 92%
    08:00 -7°C° 0 mm 3 mps 746 mmHg 91%
    09:00 -7°C° 0 mm 3 mps 746 mmHg 87%
    10:00 -6°C° 0 mm 3 mps 746 mmHg 83%
    11:00 -7°C° 0 mm 4 mps 745 mmHg 79%
    12:00 -5°C° 0 mm 4 mps 745 mmHg 77%
    13:00 -5°C° 0 mm 3 mps 744 mmHg 75%
    14:00 -5°C° 0 mm 3 mps 744 mmHg 73%
    15:00 -5°C° 0 mm 3 mps 743 mmHg 76%
    16:00 -6°C° 0 mm 3 mps 743 mmHg 79%
    17:00 -6°C° 0 mm 3 mps 742 mmHg 82%
    18:00 -6°C° 0 mm 3 mps 742 mmHg 84%
    19:00 -7°C° 0 mm 3 mps 741 mmHg 85%
    20:00 -8°C° 0 mm 4 mps 741 mmHg 87%
    21:00 -8°C° 0 mm 4 mps 740 mmHg 87%
    22:00 -8°C° 0 mm 4 mps 740 mmHg 87%
    23:00 -8°C° 0 mm 4 mps 739 mmHg 87%

    23 January, Wednesday

    Time Temperature Precipitation Wind Pressure Humidity
    00:00 -9°C° 0 mm 4 mps 739 mmHg 88%
    01:00 -9°C° 0 mm 4 mps 738 mmHg 89%
    02:00 -9°C° 0 mm 4 mps 737 mmHg 91%
    03:00 -9°C° 0 mm 4 mps 737 mmHg 91%
    04:00 -10°C° 0 mm 4 mps 736 mmHg 92%
    05:00 -11°C° 0 mm 5 mps 736 mmHg 93%
    06:00 -11°C° 0 mm 5 mps 735 mmHg 93%
    07:00 -11°C° 0 mm 5 mps 735 mmHg 92%
    08:00 -11°C° 0 mm 5 mps 734 mmHg 92%
    09:00 -10°C° 0 mm 5 mps 734 mmHg 90%
    10:00 -8°C° 0 mm 5 mps 734 mmHg 88%
    11:00 -8°C° 0 mm 5 mps 733 mmHg 86%
    12:00 -6°C° 0 mm 6 mps 733 mmHg 86%
    13:00 -5°C° 0 mm 6 mps 732 mmHg 86%
    14:00 -4°C° 0 mm 6 mps 731 mmHg 86%
    15:00 -3°C° 0 mm 6 mps 731 mmHg 86%
    16:00 -3°C° 0 mm 6 mps 730 mmHg 87%
    17:00 -3°C° 0 mm 6 mps 730 mmHg 87%
    18:00 -3°C° 0 mm 6 mps 730 mmHg 88%
    19:00 -2°C° 0 mm 6 mps 729 mmHg 89%
    20:00 -2°C° 0 mm 6 mps 729 mmHg 89%
    21:00 -2°C° 0.1 mm 6 mps 729 mmHg 89%
    22:00 -2°C° 0.1 mm 6 mps 729 mmHg 89%
    23:00 -2°C° 0.1 mm 6 mps 728 mmHg 88%
    Show more